CZ-3B DEB, 40814

Orbit data source: Space-Track

CZ-3B DEB, 40814 is space debris in HEO originally from a launch on Sat, 04 Sep 2010 UTC launched from the Xichang Space Center, China (XSC). Debris objects in space refer to the collection of defunct objects orbiting the Earth. Examples of debris include non-operational satellites, rocket bodies, and fragments generated from explosions, collisions, or faulty payload assembly.

Loading next visibility...
Identifier
40814, 2010-042X
Orbit
HEO
Country
Flag of CNCN / PRC
Related business
Manufacturer
CALT
Mission
Spacecraft
Bus & Motor
Unknown
Mass
Unknown
Launch date (UTC)
2010-09-04 (15 years ago)
Launch vehicle
Unknown
Launch site
Xichang Space Center, China (XSC)
Object type
Payload
Rocket body
Debris
Shape & HBR
Unknown shape, 0.1 m
Radar Cross Section
Medium (>0.1 m² and <1 m²)

Expand to show TLE details & history
Last TLE update: 2 days ago

TLE from 2 days ago
0 CZ-3B DEB
1 40814U 10042X   25285.71112385  .00000225  00000-0  48114-2 0  9993
2 40814  26.0563 223.7752 7394515  50.4645 354.2111  1.90401351 76056
Epoch: 2025-10-12T17:04Z
TLE epoch observation values (Epoch: 2025-10-12T17:04:01.100Z)
Latitude
0.00018°
Longitude
-53.74554°
Altitude
2,111.266 km
Speed
8.911 km/s
True Right ascension
14h 55m 08s
True Declination
0° 00' 01"
Sunlit
Object was in daylight at epoch
Visualization orbit readout
Latitude
Unknown
Longitude
Unknown
Altitude
Unknown
Speed
Unknown
Apparent Right ascension
Unknown
Apparent Declination
Unknown
Sunlit
N/A
Visualization observer readout
Local Sidereal Time
13:50:13
Azimuth
Unknown
Elevation
Unknown
Doppler factor
Unknown
Orbital elements
Apogee altitude
41,458.429 km
Perigee altitude
787.194 km
Semi-major axis
27,500.949 km
Eccentricity
0.73945
Inclination
26.0563°
RAAN
223.7752°
Arg. of periapsis
50.4645°
True anomaly
309.01872°
Mean anomaly
354.2111°
Eccentric anomaly
339.09036°
Mean motion
0.47591 °/min
Orbital period
756.45 mins
BSTAR
0.0048114
Loading maneuver chart data...
Computing Atmospheric mass density...
Loading historical data...
Loading historical data...
Loading historical data...
Loading historical data...
Loading historical data...
Loading historical data...
Loading historical data...

Documentation

Showing up to 5 results
|